Tracking 27107 objects as of 20-Mar-2023
HD Live streaming from Space Station
objects crossing your sky now

SOLRAD 3/INJUN 1

Track SOLRAD 3/INJUN 1 now!
10-day predictions
SOLRAD 3/INJUN 1 is classified as:


NORAD ID: 117
Int'l Code: 1961-015B
Perigee: 882.6 km
Apogee: 989.4 km
Inclination: 66.8 °
Period: 103.6 minutes
Semi major axis: 7307 km
RCS: 0.4448 m2 (medium)
Launch date: June 29, 1961
Source: United States (US)
Launch site: AIR FORCE EASTERN TEST RANGE (AFETR)
Your satellite tracking list
Your tracking list is empty




NASA's NSSDC Master Catalog

Two Line Element Set (TLE):
1 00117U 61015B   23078.87275573  .00000040  00000-0  92532-4 0  9995
2 00117  66.8149  14.2203 0073096  43.0423 317.6341 13.89932605129315
Source of the keplerian elements: AFSPC